EW4431 Weather Reports


Display with metric or nautical units.
time (UTC)temp
F
wind
direction
speed
MPH
gust
MPH
rain 1hr
in
rain 24hr
in
rain mn
in
humidity
%
barometer
mb
20260906171549 97 285 0.0 2.0 0.00 0.00 0.00 30 1007.9
20260906170048 97 73 0.0 2.0 0.00 0.00 0.00 30 1008.1
20260906164545 96 242 0.0 1.0 0.00 0.00 0.00 33 1008.1
20260906163045 94 278 0.0 1.0 0.00 0.00 0.00 35 1008.1
20260906161545 94 82 0.0 1.0 0.00 0.00 0.00 33 1008.0
20260906160043 93 129 0.0 1.0 0.00 0.00 0.00 38 1008.2
20260906154540 92 100 0.0 0.0 0.00 0.00 0.00 37 1008.3
20260906153040 89 113 0.0 3.0 0.00 0.00 0.00 40 1008.3
20260906151548 87 68 2.0 3.0 0.00 0.00 0.00 41 1008.4
20260906150039 87 96 1.0 5.0 0.00 0.00 0.00 41 1008.3
20260906144510 87 89 1.0 3.0 0.00 0.00 0.00 41 1008.2
20260906143012 86 92 1.0 6.0 0.00 0.00 0.00 42 1008.0
20260906141537 86 333 0.0 3.0 0.00 0.00 0.00 42 1007.9
20260906140037 85 35 0.0 0.0 0.00 0.00 0.00 44 1007.8
20260906134533 82 35 0.0 0.0 0.00 0.00 0.00 47 1007.6
20260906133032 0 0.0 0.0 0.00 0.00 0.00 1007.4
20260906131529 0 0.0 0.0 0.00 0.00 0.00 1007.1
20260906130023 0 0.0 0.0 0.00 0.00 0.00 1007.2
20260906124619 0 0.0 0.0 0.00 0.00 0.00 1007.0
20260906123045 0 0.0 0.0 0.00 0.00 0.00 1007.0
20260906121542 0 0.0 0.0 0.00 0.00 0.00 1007.1
20260906120010 0 0.0 0.0 0.00 0.00 0.00 1007.0
20260906114502 0 0.0 0.0 0.00 0.00 0.00 1006.9
20260906113056 0 0.0 0.0 0.00 0.00 0.00 1006.9
20260906111548 0 0.0 0.0 0.00 0.00 0.00 1006.8
20260906110044 0 0.0 0.0 0.00 0.00 0.00 1006.9
20260906104540 0 0.0 0.0 0.00 0.00 0.00 1006.9
20260906103047 76 287 0.0 0.0 0.00 0.00 0.00 55 1006.8
20260906101534 78 288 0.0 0.0 0.00 0.00 0.00 53 1006.8
20260906100035 79 287 0.0 0.0 0.00 0.00 0.00 53 1006.7
20260906094530 78 288 0.0 0.0 0.00 0.00 0.00 52 1006.7
20260906093025 79 288 0.0 0.0 0.00 0.00 0.00 50 1006.7
20260906091523 80 287 0.0 0.0 0.00 0.00 0.00 48 1006.7
20260906090022 81 288 0.0 0.0 0.00 0.00 0.00 48 1006.7
20260906084522 81 287 0.0 0.0 0.00 0.00 0.00 48 1006.8
20260906083019 80 287 0.0 0.0 0.00 0.00 0.00 49 1006.9
20260906081518 81 287 0.0 0.0 0.00 0.00 0.00 49 1007.0
20260906080016 81 287 0.0 0.0 0.00 0.00 0.00 48 1007.0
20260906074516 81 287 0.0 0.0 0.00 0.00 0.00 48 1007.1
20260906073042 81 287 0.0 0.0 0.00 0.00 0.00 47 1007.1
20260906071540 82 287 0.0 0.0 0.00 0.00 0.00 45 1007.3
20260906070035 82 287 0.0 0.0 0.00 0.00 0.00 45 1007.2
20260906064537 83 287 0.0 0.0 0.00 0.00 0.00 43 1007.2
20260906063032 83 287 0.0 0.0 0.00 0.00 0.00 44 1007.3
20260906061531 83 287 0.0 0.0 0.00 0.00 0.00 43 1007.2
20260906060029 84 287 0.0 0.0 0.00 0.00 0.00 44 1007.2
20260906054533 85 287 0.0 0.0 0.00 0.00 0.00 41 1007.3
20260906053021 85 287 0.0 0.0 0.00 0.00 0.00 41 1007.2
20260906051518 87 287 0.0 0.0 0.00 0.00 0.00 37 1007.3
20260906050014 87 287 0.0 0.0 0.00 0.00 0.00 37 1007.3
20260906044514 88 287 0.0 0.0 0.00 0.00 0.00 36 1007.3
20260906043020 87 287 0.0 0.0 0.00 0.00 0.00 37 1007.3
20260906041511 88 287 0.0 0.0 0.00 0.00 0.00 36 1007.2
20260906040005 89 287 0.0 0.0 0.00 0.00 0.00 36 1007.3
20260906034503 89 287 0.0 0.0 0.00 0.00 0.00 34 1007.2
20260906033101 90 287 0.0 1.0 0.00 0.00 0.00 33 1007.0
20260906031603 90 266 0.0 1.0 0.00 0.00 0.00 33 1006.9
20260906030054 91 266 0.0 1.0 0.00 0.00 0.00 33 1006.8
20260906024553 91 281 0.0 1.0 0.00 0.00 0.00 32 1006.7
20260906023051 93 283 0.0 2.0 0.00 0.00 0.00 31 1006.4
20260906021548 93 231 0.0 3.0 0.00 0.00 0.00 29 1006.2
20260906020042 94 255 0.0 3.0 0.00 0.00 0.00 28 1006.3
20260906014548 95 282 1.0 4.0 0.00 0.00 0.00 28 1006.4
20260906013044 95 149 0.0 2.0 0.00 0.00 0.00 27 1006.4
20260906011537 96 292 0.0 4.0 0.00 0.00 0.00 27 1006.5
20260906010030 98 243 1.0 4.0 0.00 0.00 0.00 25 1006.6
20260906004527 99 277 1.0 6.0 0.00 0.00 0.00 25 1006.6
20260906003029 100 221 0.0 7.0 0.00 0.00 0.00 25 1006.5
20260906001525 100 239 0.0 6.0 0.00 0.00 0.00 26 1006.4
20260906000024 100 248 2.0 6.0 0.00 0.00 0.00 26 1006.3
20260905234519 101 248 0.0 4.0 0.00 0.00 0.00 25 1006.3
20260905233020 101 289 1.0 7.0 0.00 0.00 0.00 26 1006.4
20260905231515 101 207 1.0 5.0 0.00 0.00 0.00 26 1006.3
20260905230013 101 245 0.0 2.0 0.00 0.00 0.00 29 1006.3
20260905224515 101 196 1.0 5.0 0.00 0.00 0.00 28 1006.3
20260905223008 101 293 0.0 9.0 0.00 0.00 0.00 29 1006.5
20260905221506 102 268 1.0 7.0 0.00 0.00 0.00 27 1006.6
20260905220004 102 271 1.0 6.0 0.00 0.00 0.00 29 1006.9
20260905214558 101 253 1.0 4.0 0.00 0.00 0.00 29 1007.1
20260905213100 101 227 1.0 6.0 0.00 0.00 0.00 28 1007.2
20260905211553 101 72 1.0 5.0 0.00 0.00 0.00 29 1007.5
20260905210057 102 278 0.0 4.0 0.00 0.00 0.00 27 1007.7
20260905204544 101 145 1.0 5.0 0.00 0.00 0.00 28 1007.9
20260905203042 102 302 1.0 4.0 0.00 0.00 0.00 28 1008.1
20260905201538 101 192 0.0 4.0 0.00 0.00 0.00 31 1008.4
20260905200040 100 278 0.0 5.0 0.00 0.00 0.00 30 1008.4
20260905194505 100 256 0.0 2.0 0.00 0.00 0.00 30 1008.7
20260905193002 100 297 0.0 3.0 0.00 0.00 0.00 29 1008.9
20260905191558 99 253 0.0 4.0 0.00 0.00 0.00 30 1009.1
20260905190100 100 224 0.0 3.0 0.00 0.00 0.00 29 1009.3
20260905184552 100 248 0.0 2.0 0.00 0.00 0.00 33 1009.6
20260905183106 100 114 1.0 4.0 0.00 0.00 0.00 28 1009.8
20260905181547 100 71 0.0 4.0 0.00 0.00 0.00 31 1009.9
20260905180042 98 360 1.0 5.0 0.00 0.00 0.00 31 1010.0
20260905174541 97 252 0.0 2.0 0.00 0.00 0.00 31 1010.0
20260905173038 98 347 0.0 2.0 0.00 0.00 0.00 30 1010.0